Regional Weather Roundup
Issued by NWS

Home | Current Version | Previous Version | Text Only | Print | Product List | Glossary On
Versions: 1 2 3 4 5 6 7 8 9 10 11 12 13 14 15 16 17 18 19 20 21 22 23 24 25 26 27 28 29 30 31 32 33 34 35 36 37 38 39 40 41 42 43 44 45 46 47 48 49 50
000
ASUS44 KFWD 231815
RWRTX
NORTH TEXAS HOURLY WEATHER ROUNDUP
NATIONAL WEATHER SERVICE FORT WORTH TX
100 PM CDT WED APR 23 2014

NOTE: "FAIR" INDICATES FEW OR NO CLOUDS BELOW 12,000 FEET WITH NO
SIGNIFICANT WEATHER AND/OR OBSTRUCTIONS TO VISIBILITY.

TXZ118-119-231900-
DALLAS/FORT WORTH METROPLEX

CITY           SKY/WX    TMP DP  RH WIND       PRES   REMARKS
DFW AIRPORT    FAIR      83  60  45 S15G22    29.87F
6HR MIN TEMP:  61; 6HR MAX TEMP:  83; 6HR PCP: TRACE;

DALLAS LOVE    FAIR      83  59  44 S12G23    29.88F
6HR MIN TEMP:  63; 6HR MAX TEMP:  84;

FTW MEACHAM    FAIR      82  61  48 S13G22    29.86F
6HR MIN TEMP:  61; 6HR MAX TEMP:  83;

DAL-EXECUTIVE  FAIR      82  62  50 S10G20    29.88F
6HR MIN TEMP:  62; 6HR MAX TEMP:  83;

FTW-ALLIANCE   FAIR      80  62  54 S12G20    29.86F
6HR MIN TEMP:  58; 6HR MAX TEMP:  80;

FTW-NAS-JRB    FAIR      85  55  35 SE14G22   29.90F
6HR MIN TEMP:  62; 6HR MAX TEMP:  85;

FTW-SPINKS     SUNNY     84  57  39 SE16G22   29.88F
ARLINGTON      FAIR      83  60  45 SE14G22   29.87F
6HR MIN TEMP:  53; 6HR MAX TEMP:  83;

GRAND PRAIRIE  SUNNY     82  59  44 SE12G21   29.90F
MESQUITE       MOSUNNY   81  61  50 MISG      29.90F
LANCASTER      FAIR      80  62  54 S10       29.90F
6HR MIN TEMP:  55; 6HR MAX TEMP:  80;

$$

TXZ091>094-102>105-117-120-121-131>134-231900-
NORTH CENTRAL TEXAS

CITY           SKY/WX    TMP DP  RH WIND       PRES   REMARKS
GAINESVILLE    FAIR      78  61  55 S16       29.90F
6HR MIN TEMP:  55; 6HR MAX TEMP:  78;

BRIDGEPORT     FAIR      80  56  43 S13       29.87F
6HR MIN TEMP:  53; 6HR MAX TEMP:  80;

DENTON         FAIR      81  61  50 S16G22    29.87F
6HR MIN TEMP:  54; 6HR MAX TEMP:  81;

MCKINNEY       FAIR      81  62  52 S15G24    29.89F
6HR MIN TEMP:  53; 6HR MAX TEMP:  81; 6HR PCP:  0.01;

GREENVILLE     FAIR      81  59  47 SE15      29.90F
ROCKWALL       PTSUNNY   82  63  53 E10G17    29.89F
6HR MIN TEMP:  60; 6HR MAX TEMP:  82;

TERRELL        FAIR      81  63  54 S17       29.91F
6HR MIN TEMP:  57; 6HR MAX TEMP:  81;

WAXAHACHIE     FAIR      82  60  48 S14       29.90F
6HR MIN TEMP:  58; 6HR MAX TEMP:  82;

CLEBURNE       FAIR      82  61  47 S14G20    29.89F
GRANBURY       FAIR      86  56  36 SE13G20   29.86F
6HR MIN TEMP:  55; 6HR MAX TEMP:  86;

$$

TXZ083>090-098>101-113>116-127>130-139>142-154-155-231900-
WESTERN NORTH TEXAS

CITY           SKY/WX    TMP DP  RH WIND       PRES   REMARKS
WICHITA FALLS  FAIR      82  60  47 S16G26    29.81F
6HR MIN TEMP:  56; 6HR MAX TEMP:  82;

ABILENE        FAIR      84  59  42 S20G26    29.83F
6HR MIN TEMP:  62; 6HR MAX TEMP:  85; 6HR PCP: TRACE;

ABILENE-DYESS  CLOUDY    85  61  44 S22G32    29.81F
6HR MIN TEMP:  63; 6HR MAX TEMP:  85;

BRECKENRIDGE   FAIR      87  57  36 S15G24    29.83F
6HR MIN TEMP:  63; 6HR MAX TEMP:  87;

GRAHAM         FAIR      84  60  42 S15       29.81F
6HR MIN TEMP:  60; 6HR MAX TEMP:  84;

MINERAL WELLS  FAIR      84  59  42 S13G18    29.84F
6HR MIN TEMP:  56; 6HR MAX TEMP:  84;

STEPHENVILLE   FAIR      83  57  41 SE17G24   29.89F
6HR MIN TEMP:  55; 6HR MAX TEMP:  83;

COMANCHE       FAIR      84  58  40 S17G24    29.87F
6HR MIN TEMP:  60; 6HR MAX TEMP:  84;

BROWNWOOD      FAIR      84  59  42 S14G21    29.85F
COLEMAN        FAIR      86  57  37 S16G24    29.85F
6HR MIN TEMP:  59; 6HR MAX TEMP:  86;

$$

TXZ143>147-156>162-174-175-231900-
CENTRAL TEXAS

CITY           SKY/WX    TMP DP  RH WIND       PRES   REMARKS
WACO           FAIR      82  62  50 S15       29.89F
6HR MIN TEMP:  54; 6HR MAX TEMP:  83;

WACO-TSTC      MOSUNNY   82  63  51 S14G22    29.89F
WACO-MCGREGOR  FAIR      84  61  45 S20       29.90F
6HR MIN TEMP:  57; 6HR MAX TEMP:  84;

CORSICANA      FAIR      83  64  52 S13       29.91F
6HR MIN TEMP:  61; 6HR MAX TEMP:  84;

CAMERON        FAIR      83  62  49 S14G21    29.89F
TEMPLE         FAIR      82  61  47 SE18      29.91F
6HR MIN TEMP:  57; 6HR MAX TEMP:  82;

KILLEEN        MOSUNNY   82  61  47 SE20G25   29.88F
KILLEEN-SKYLRK FAIR     N/A N/A N/A SE15G23   29.87F
FORT HOOD      FAIR      85  60  42 SE14G24   29.87F
6HR MIN TEMP:  61; 6HR MAX TEMP:  86;

GATESVILLE     FAIR      82  57  42 SE12G18   29.90F
HAMILTON       FAIR      84  57  39 S17G24    29.89F
6HR MIN TEMP:  58; 6HR MAX TEMP:  84;

LAMPASAS       FAIR      83  63  50 SE9       29.87F
6HR MIN TEMP:  57; 6HR MAX TEMP:  83;

$$

TXZ095>097-106>112-122>126-135>138-148>153-164>167-231900-
EAST TEXAS

CITY           SKY/WX    TMP DP  RH WIND       PRES   REMARKS
PARIS          FAIR      79  61  53 SE12G18   29.92F
6HR MIN TEMP:  55; 6HR MAX TEMP:  79;

GILMER         FAIR      82  59  44 SE9       29.94F
MINEOLA        FAIR      81  57  44 SE12      29.93F
TYLER          FAIR      82  58  43 VRB7      29.93F
6HR MIN TEMP:  59; 6HR MAX TEMP:  83;

LONGVIEW       FAIR      81  58  45 SE12G17   29.93F
6HR MIN TEMP:  57; 6HR MAX TEMP:  82;

MARSHALL       FAIR      79  56  44 SE7       29.96F
6HR MIN TEMP:  56; 6HR MAX TEMP:  79;

PALESTINE      PTSUNNY   81  57  43 SE9       29.94F
JACKSONVILLE   FAIR      79  55  43 SE5       29.96F
HENDERSON      FAIR      82  52  35 SE10      29.94F
6HR MIN TEMP:  54; 6HR MAX TEMP:  82;

NACOGDOCHES    FAIR      81  61  50 S7        29.95F
6HR MIN TEMP:  54; 6HR MAX TEMP:  81;

LUFKIN         FAIR      85  59  41 SE12      29.94F
6HR MIN TEMP:  58; 6HR MAX TEMP:  85;

$$

SUPPLEMENTAL OBSERVATIONS (CENTRAL)

CITY           SKY/WX    TMP DP  RH WIND       PRES   REMARKS
LAKE TEXOMA      N/A     79  59  50 S10         N/A
PAT MAYSE LAKE   N/A     77  57  50 SE14        N/A
MCGREGOR         N/A     84  57  39 S20G25      N/A
TEMPLE           N/A     84  59  42 SE17G24     N/A
$$

SUPPLEMENTAL OBSERVATIONS (WEST)

CITY           SKY/WX    TMP DP  RH WIND       PRES   REMARKS
MILLERS CREEK    N/A     88  57  35 S17G28      N/A
POSSUM KINGDOM   N/A     84  59  42 S14         N/A
GRANBURY         N/A     86  55  35 SE14        N/A
HAMBY            N/A     84  59  42 S21G26      N/A
IVIE RESERVOIR   N/A     86  59  39 S14G23      N/A
COLORADO BEND    N/A     84  59  42 S10G21      N/A
$$

SUPPLEMENTAL OBSERVATIONS (EAST)

CITY           SKY/WX    TMP DP  RH WIND       PRES   REMARKS
TEXARKANA        N/A     79  57  47 SE3         N/A
LINDEN           N/A     81  57  44 S3G12       N/A
CADDO LAKE       N/A     84  59  42 SE6         N/A
LUFKIN           N/A     82  59  44 MISG        N/A
$$

SUPPLEMENTAL OBSERVATIONS ARE A COLLECTION OF AUTOMATED INSTRUMENTS
THAT ARE MAINTAINED BY A VARIETY OF FEDERAL AND STATE AGENCIES.
CERTAIN ELEMENTS...SUCH AS HUMIDITY VALUES AND SUSTAINED WIND
SPEEDS...MAY BE APPROXIMATED.




USA.gov is the U.S. government's official web portal to all federal, state and local government web resources and services.